Location: Ar Ranvel
(48.3000°N, 4.8833°W)
Time: 10:31:43
(UTC+00:00)

NOSS 3-2 (A) - Pass Details

Date: 16 June 2021
Orbit: 774 x 1433 km, 63.4° (Epoch: 17 July)

Event Time Altitude Azimuth Distance (km) Brightness Sun altitude
Rises 21:08:43 0° 231° (SW) 3,339 6.4 -6.5°
Reaches altitude 10° 21:11:02 10° 234° (SW) 2,463 5.7 -6.7°
Maximum altitude 21:16:41 65° 317° (NW) 1,018 4.0 -7.4°
Drops below altitude 10° 21:23:17 10° 39° (NE) 2,869 6.1 -8.1°
Sets 21:26:12 0° 42° (NE) 3,933 6.8 -8.4°
